Welcome to Northern Hawkes Bay. New Zealand.
PWS Header
      nz Flag



Hit Counter


W3C Valid W3C Valid logo


    Wairoa

Select any of the Stations below to visit their websites.










Historic Data from Weather Underground
Select the location of interest below. Wairoa is the default. Please have patience, this Data is slow to load in.
Northern Hawkes Bay Historical Data
Daily Summary for March 4, 2017 Units:  Metric    English   Both
« Previous Day
Next Day »
Daily Weekly Monthly Yearly Custom
  High: Low: Average:
Temperature: 30.6 °C 13.5 °C 21.3 °C
Dew Point: 17.0 °C 10.1 °C 13.2 °C
Humidity: 85% 36% 61%
Wind Speed: 12.2km/h 0.0km/h 3km/h
Wind Gust: 21.9km/h - -
Wind- - SW
Pressure: 1015.1 hPa 1012.8 hPa -
Precipitation: 0.0 mm    
Historical Graphs
 
 
Tabular Data for March 4, 2017
Time Temperature Dew Point Pressure Wind Wind Speed Wind Gust Humidity Rainfall Rate (Hourly) solar
00:01 18.6 °C 10.9 °C 1014.8 hPa NW 8.7 km/h 17.2 km/h 61% 0.0 mm 0 W/m2
00:06 18.6 °C 10.9 °C 1014.8 hPa NW 7.2 km/h 17.2 km/h 61% 0.0 mm 0 W/m2
00:11 18.6 °C 10.9 °C 1014.4 hPa NW 7.2 km/h 18.3 km/h 61% 0.0 mm 0 W/m2
00:16 18.5 °C 10.8 °C 1014.8 hPa NW 11.1 km/h 18.3 km/h 61% 0.0 mm 0 W/m2
00:21 18.5 °C 10.8 °C 1014.8 hPa NW 6.1 km/h 15.8 km/h 61% 0.0 mm 0 W/m2
00:26 18.4 °C 10.8 °C 1014.8 hPa NW 5.0 km/h 15.8 km/h 61% 0.0 mm 0 W/m2
00:31 18.3 °C 10.7 °C 1014.8 hPa NW 9.7 km/h 15.8 km/h 61% 0.0 mm 0 W/m2
00:36 18.2 °C 10.8 °C 1014.8 hPa NW 9.7 km/h 14.8 km/h 62% 0.0 mm 0 W/m2
00:41 18.1 °C 10.7 °C 1014.8 hPa NW 6.1 km/h 19.5 km/h 62% 0.0 mm 0 W/m2
00:46 17.9 °C 10.8 °C 1015.1 hPa NW 7.2 km/h 19.5 km/h 63% 0.0 mm 0 W/m2
00:51 17.7 °C 10.6 °C 1014.8 hPa NW 6.1 km/h 11.1 km/h 63% 0.0 mm 0 W/m2
00:56 17.4 °C 10.3 °C 1015.1 hPa Calm   9.7 km/h 63% 0.0 mm 0 W/m2
01:01 17.2 °C 10.3 °C 1015.1 hPa Calm   9.7 km/h 64% 0.0 mm 0 W/m2
01:06 17.0 °C 10.4 °C 1015.1 hPa Calm   6.1 km/h 65% 0.0 mm 0 W/m2
01:11 16.9 °C 10.5 °C 1014.8 hPa Calm   3.5 km/h 66% 0.0 mm 0 W/m2
01:16 16.9 °C 10.5 °C 1014.8 hPa NNW 5.0 km/h 11.1 km/h 66% 0.0 mm 0 W/m2
01:21 17.0 °C 10.4 °C 1014.8 hPa NW 5.0 km/h 11.1 km/h 65% 0.0 mm 0 W/m2
01:26 16.8 °C 10.4 °C 1014.8 hPa Calm   11.1 km/h 66% 0.0 mm 0 W/m2
01:31 16.7 °C 10.3 °C 1014.8 hPa NW 3.5 km/h 8.7 km/h 66% 0.0 mm 0 W/m2
01:36 16.7 °C 10.3 °C 1014.8 hPa NW 2.6 km/h 8.7 km/h 66% 0.0 mm 0 W/m2
01:41 16.6 °C 10.4 °C 1014.8 hPa NW 2.6 km/h 8.7 km/h 67% 0.0 mm 0 W/m2
01:46 16.5 °C 10.3 °C 1014.8 hPa Calm   7.2 km/h 67% 0.0 mm 0 W/m2
01:51 16.5 °C 10.3 °C 1014.8 hPa NNW 2.6 km/h 7.2 km/h 67% 0.0 mm 0 W/m2
01:56 16.6 °C 10.4 °C 1014.8 hPa NNW 1.1 km/h 9.7 km/h 67% 0.0 mm 0 W/m2
02:01 16.6 °C 10.2 °C 1014.8 hPa NNW 2.6 km/h 9.7 km/h 66% 0.0 mm 0 W/m2
02:06 16.6 °C 10.2 °C 1014.4 hPa NW 6.1 km/h 9.7 km/h 66% 0.0 mm 0 W/m2
02:11 16.6 °C 10.2 °C 1014.8 hPa NNW 3.5 km/h 9.7 km/h 66% 0.0 mm 0 W/m2
02:16 16.6 °C 10.2 °C 1014.4 hPa NNW 1.1 km/h 9.7 km/h 66% 0.0 mm 0 W/m2
02:21 16.5 °C 10.1 °C 1014.4 hPa NNW 1.1 km/h 8.7 km/h 66% 0.0 mm 0 W/m2
02:26 16.5 °C 10.1 °C 1014.4 hPa NNW 2.6 km/h 8.7 km/h 66% 0.0 mm 0 W/m2
02:31 16.4 °C 10.3 °C 1014.4 hPa North 1.1 km/h 8.7 km/h 67% 0.0 mm 0 W/m2
02:36 16.1 °C 10.4 °C 1014.4 hPa North 3.5 km/h 6.1 km/h 69% 0.0 mm 0 W/m2
02:41 15.9 °C 10.4 °C 1014.4 hPa North 2.6 km/h 7.2 km/h 70% 0.0 mm 0 W/m2
02:46 15.7 °C 10.4 °C 1014.4 hPa Calm   7.2 km/h 71% 0.0 mm 0 W/m2
02:51 15.7 °C 10.7 °C 1014.4 hPa North 1.1 km/h 7.2 km/h 72% 0.0 mm 0 W/m2
02:56 15.7 °C 10.7 °C 1014.1 hPa North 5.0 km/h 8.7 km/h 72% 0.0 mm 0 W/m2
03:01 15.7 °C 10.7 °C 1014.4 hPa North 3.5 km/h 8.7 km/h 72% 0.0 mm 0 W/m2
03:06 15.6 °C 10.8 °C 1014.1 hPa North 3.5 km/h 8.7 km/h 73% 0.0 mm 0 W/m2
03:11 15.6 °C 10.8 °C 1014.1 hPa North 2.6 km/h 8.7 km/h 73% 0.0 mm 0 W/m2
03:16 15.7 °C 10.9 °C 1014.4 hPa North 5.0 km/h 9.7 km/h 73% 0.0 mm 0 W/m2
03:21 15.6 °C 10.8 °C 1014.1 hPa North 3.5 km/h 9.7 km/h 73% 0.0 mm 0 W/m2
03:26 15.6 °C 10.8 °C 1014.1 hPa North 2.6 km/h 9.7 km/h 73% 0.0 mm 0 W/m2
03:31 15.5 °C 10.7 °C 1014.1 hPa North 3.5 km/h 8.7 km/h 73% 0.0 mm 0 W/m2
03:36 15.5 °C 10.7 °C 1014.1 hPa North 1.1 km/h 7.2 km/h 73% 0.0 mm 0 W/m2
03:41 15.5 °C 10.7 °C 1013.8 hPa North 5.0 km/h 7.2 km/h 73% 0.0 mm 0 W/m2
03:46 15.5 °C 10.7 °C 1013.8 hPa North 5.0 km/h 8.7 km/h 73% 0.0 mm 0 W/m2
03:51 15.5 °C 10.7 °C 1014.1 hPa North 1.1 km/h 8.7 km/h 73% 0.0 mm 0 W/m2
03:56 15.4 °C 10.6 °C 1013.8 hPa North 1.1 km/h 6.1 km/h 73% 0.0 mm 0 W/m2
04:01 15.4 °C 10.6 °C 1014.1 hPa North 2.6 km/h 6.1 km/h 73% 0.0 mm 0 W/m2
04:06 15.4 °C 10.6 °C 1013.8 hPa Calm   6.1 km/h 73% 0.0 mm 0 W/m2
04:11 15.3 °C 10.5 °C 1013.8 hPa Calm   8.7 km/h 73% 0.0 mm 0 W/m2
04:16 15.3 °C 10.5 °C 1013.4 hPa North 2.6 km/h 8.7 km/h 73% 0.0 mm 0 W/m2
04:21 15.3 °C 10.5 °C 1013.4 hPa North 3.5 km/h 8.7 km/h 73% 0.0 mm 0 W/m2
04:26 15.4 °C 10.6 °C 1013.8 hPa North 6.1 km/h 9.7 km/h 73% 0.0 mm 0 W/m2
04:31 15.4 °C 10.6 °C 1013.4 hPa North 2.6 km/h 9.7 km/h 73% 0.0 mm 0 W/m2
04:36 15.3 °C 10.5 °C 1013.4 hPa NNW 6.1 km/h 8.7 km/h 73% 0.0 mm 0 W/m2
04:41 15.3 °C 10.5 °C 1013.4 hPa NNW 6.1 km/h 9.7 km/h 73% 0.0 mm 0 W/m2
04:46 15.3 °C 10.5 °C 1013.4 hPa NNW 1.1 km/h 9.7 km/h 73% 0.0 mm 0 W/m2
04:51 15.1 °C 10.5 °C 1013.4 hPa North 5.0 km/h 9.7 km/h 74% 0.0 mm 0 W/m2
05:10 15.0 °C 10.6 °C 1013.4 hPa Calm   11.1 km/h 75% 0.0 mm 0 W/m2
05:15 15.0 °C 10.6 °C 1013.4 hPa Calm   8.7 km/h 75% 0.0 mm 0 W/m2
05:20 14.9 °C 10.7 °C 1013.1 hPa North 2.6 km/h 8.7 km/h 76% 0.0 mm 0 W/m2
05:25 14.8 °C 10.6 °C 1013.1 hPa North 5.0 km/h 8.7 km/h 76% 0.0 mm 0 W/m2
05:30 14.8 °C 10.6 °C 1013.4 hPa NNW 1.1 km/h 9.7 km/h 76% 0.0 mm 0 W/m2
05:35 14.7 °C 10.7 °C 1013.1 hPa North 2.6 km/h 9.7 km/h 77% 0.0 mm 0 W/m2
05:40 14.6 °C 10.6 °C 1013.4 hPa NNW 6.1 km/h 9.7 km/h 77% 0.0 mm 0 W/m2
05:45 14.5 °C 10.5 °C 1013.4 hPa NNW 3.5 km/h 9.7 km/h 77% 0.0 mm 0 W/m2
05:50 14.5 °C 10.7 °C 1013.4 hPa North 5.0 km/h 9.7 km/h 78% 0.0 mm 0 W/m2
05:55 14.4 °C 10.6 °C 1013.4 hPa North 5.0 km/h 11.1 km/h 78% 0.0 mm 0 W/m2
06:00 14.3 °C 10.7 °C 1013.4 hPa NNW 2.6 km/h 11.1 km/h 79% 0.0 mm 0 W/m2
06:05 14.2 °C 10.6 °C 1013.1 hPa NNW 2.6 km/h 11.1 km/h 79% 0.0 mm 0 W/m2
06:09 14.1 °C 10.7 °C 1013.4 hPa North 2.6 km/h 9.7 km/h 80% 0.0 mm 0 W/m2
06:14 14.0 °C 10.6 °C 1013.4 hPa North 3.5 km/h 9.7 km/h 80% 0.0 mm 0 W/m2
06:19 13.9 °C 10.9 °C 1013.1 hPa North 5.0 km/h 12.2 km/h 82% 0.0 mm 0 W/m2
06:25 13.9 °C 10.9 °C 1013.1 hPa NW 3.5 km/h 12.2 km/h 82% 0.0 mm 0 W/m2
06:30 13.9 °C 10.9 °C 1013.4 hPa NNW 2.6 km/h 9.7 km/h 82% 0.0 mm 0 W/m2
06:35 13.9 °C 10.9 °C 1013.4 hPa NNW 3.5 km/h 9.7 km/h 82% 0.0 mm 0 W/m2
06:40 13.9 °C 10.9 °C 1013.4 hPa NNW 3.5 km/h 11.1 km/h 82% 0.0 mm 0 W/m2
06:45 13.9 °C 10.9 °C 1013.4 hPa NNW 5.0 km/h 11.1 km/h 82% 0.0 mm 0 W/m2
06:50 13.8 °C 10.8 °C 1013.4 hPa NNW 5.0 km/h 9.7 km/h 82% 0.0 mm 0 W/m2
06:55 13.8 °C 10.9 °C 1013.4 hPa NW 1.1 km/h 9.7 km/h 83% 0.0 mm 1 W/m2
07:00 13.7 °C 10.9 °C 1013.8 hPa NW 5.0 km/h 9.7 km/h 83% 0.0 mm 4 W/m2
07:18 13.5 °C 10.8 °C 1013.8 hPa NW 1.1 km/h 7.2 km/h 84% 0.0 mm 18 W/m2
07:23 13.6 °C 11.1 °C 1014.1 hPa NNW 1.1 km/h 7.2 km/h 85% 0.0 mm 73 W/m2
07:28 14.0 °C 11.3 °C 1013.8 hPa NNW 2.6 km/h 7.2 km/h 84% 0.0 mm 95 W/m2
07:33 14.5 °C 11.4 °C 1013.8 hPa NW 2.6 km/h 6.1 km/h 82% 0.0 mm 110 W/m2
07:38 14.7 °C 11.3 °C 1013.8 hPa NW 3.5 km/h 9.7 km/h 80% 0.0 mm 117 W/m2
07:43 15.0 °C 11.2 °C 1014.1 hPa NW 5.0 km/h 11.1 km/h 78% 0.0 mm 130 W/m2
07:48 15.3 °C 11.3 °C 1014.1 hPa NW 7.2 km/h 11.1 km/h 77% 0.0 mm 138 W/m2
07:53 15.5 °C 11.3 °C 1014.1 hPa NW 6.1 km/h 11.1 km/h 76% 0.0 mm 143 W/m2
07:59 15.7 °C 11.5 °C 1014.1 hPa NW 5.0 km/h 11.1 km/h 76% 0.0 mm 156 W/m2
08:04 15.9 °C 11.5 °C 1014.1 hPa NW 5.0 km/h 12.2 km/h 75% 0.0 mm 165 W/m2
08:09 16.0 °C 11.4 °C 1014.4 hPa NW 7.2 km/h 12.2 km/h 74% 0.0 mm 173 W/m2
08:14 16.3 °C 11.7 °C 1014.1 hPa NW 5.0 km/h 11.1 km/h 74% 0.0 mm 185 W/m2
08:19 16.7 °C 11.8 °C 1014.4 hPa NW 5.0 km/h 11.1 km/h 73% 0.0 mm 189 W/m2
08:24 16.9 °C 12.1 °C 1014.4 hPa NW 9.7 km/h 13.4 km/h 73% 0.0 mm 191 W/m2
08:29 16.8 °C 11.7 °C 1014.4 hPa NNW 6.1 km/h 13.4 km/h 72% 0.0 mm 208 W/m2
08:35 17.0 °C 11.7 °C 1014.4 hPa NNW 8.7 km/h 13.4 km/h 71% 0.0 mm 217 W/m2
08:40 17.4 °C 12.1 °C 1014.4 hPa NW 6.1 km/h 12.2 km/h 71% 0.0 mm 229 W/m2
08:45 17.9 °C 12.6 °C 1014.4 hPa NW 2.6 km/h 12.2 km/h 71% 0.0 mm 240 W/m2
08:50 18.1 °C 12.1 °C 1014.4 hPa NW 5.0 km/h 11.1 km/h 68% 0.0 mm 252 W/m2
08:55 18.4 °C 12.4 °C 1014.8 hPa NW 5.0 km/h 11.1 km/h 68% 0.0 mm 262 W/m2
09:00 19.0 °C 12.7 °C 1014.8 hPa NNW 1.1 km/h 11.1 km/h 67% 0.0 mm 275 W/m2
09:05 19.7 °C 12.9 °C 1014.4 hPa Calm   8.7 km/h 65% 0.0 mm 289 W/m2
09:10 19.8 °C 12.8 °C 1014.4 hPa NW 7.2 km/h 12.2 km/h 64% 0.0 mm 299 W/m2
09:15 20.0 °C 12.8 °C 1014.8 hPa NNW 2.6 km/h 12.2 km/h 63% 0.0 mm 290 W/m2
09:20 20.6 °C 13.3 °C 1014.8 hPa NNW 3.5 km/h 11.1 km/h 63% 0.0 mm 323 W/m2
09:25 20.8 °C 13.3 °C 1014.4 hPa Calm   8.7 km/h 62% 0.0 mm 334 W/m2
09:30 21.3 °C 13.2 °C 1014.4 hPa NNW 3.5 km/h 9.7 km/h 60% 0.0 mm 347 W/m2
09:35 21.2 °C 12.6 °C 1014.4 hPa North 6.1 km/h 14.8 km/h 58% 0.0 mm 359 W/m2
09:40 21.2 °C 12.6 °C 1014.4 hPa North 8.7 km/h 14.8 km/h 58% 0.0 mm 366 W/m2
09:45 21.2 °C 12.9 °C 1014.4 hPa North 2.6 km/h 14.8 km/h 59% 0.0 mm 379 W/m2
09:50 21.5 °C 12.6 °C 1014.4 hPa North 6.1 km/h 14.8 km/h 57% 0.0 mm 391 W/m2
09:55 21.9 °C 13.0 °C 1014.4 hPa North 6.1 km/h 13.4 km/h 57% 0.0 mm 404 W/m2
10:00 22.1 °C 12.9 °C 1014.4 hPa North 2.6 km/h 13.4 km/h 56% 0.0 mm 415 W/m2
10:05 22.2 °C 13.0 °C 1014.4 hPa NNE 7.2 km/h 12.2 km/h 56% 0.0 mm 427 W/m2
10:10 22.4 °C 12.9 °C 1014.8 hPa NNE 2.6 km/h 13.4 km/h 55% 0.0 mm 440 W/m2
10:15 22.8 °C 13.0 °C 1014.4 hPa Calm   13.4 km/h 54% 0.0 mm 454 W/m2
10:20 23.2 °C 13.1 °C 1014.8 hPa North 3.5 km/h 11.1 km/h 53% 0.0 mm 466 W/m2
10:25 23.4 °C 13.3 °C 1014.8 hPa Calm   8.7 km/h 53% 0.0 mm 480 W/m2
10:30 24.0 °C 13.3 °C 1014.8 hPa Calm   8.7 km/h 51% 0.0 mm 492 W/m2
10:35 24.4 °C 13.3 °C 1014.8 hPa Calm   8.7 km/h 50% 0.0 mm 83 W/m2
10:40 24.5 °C 13.4 °C 1014.4 hPa Calm   7.2 km/h 50% 0.0 mm 81 W/m2
10:45 25.0 °C 13.6 °C 1014.4 hPa Calm   7.2 km/h 49% 0.0 mm 82 W/m2
10:50 25.3 °C 13.5 °C 1014.8 hPa Calm   3.5 km/h 48% 0.0 mm 76 W/m2
10:55 25.7 °C 13.2 °C 1014.8 hPa Calm   5.0 km/h 46% 0.0 mm 562 W/m2
11:00 26.0 °C 12.8 °C 1014.8 hPa Calm   5.0 km/h 44% 0.0 mm 585 W/m2
11:05 26.2 °C 13.3 °C 1014.8 hPa Calm   2.6 km/h 45% 0.0 mm 602 W/m2
11:10 26.2 °C 13.3 °C 1014.8 hPa Calm   5.0 km/h 45% 0.0 mm 614 W/m2
11:15 26.1 °C 12.9 °C 1014.8 hPa Calm   5.0 km/h 44% 0.0 mm 618 W/m2
11:20 26.3 °C 13.4 °C 1014.8 hPa Calm   8.7 km/h 45% 0.0 mm 613 W/m2
11:25 25.8 °C 13.3 °C 1014.8 hPa Calm   8.7 km/h 46% 0.0 mm 647 W/m2
11:30 25.5 °C 13.4 °C 1014.8 hPa Calm   3.5 km/h 47% 0.0 mm 647 W/m2
11:35 25.6 °C 13.2 °C 1014.8 hPa Calm   5.0 km/h 46% 0.0 mm 674 W/m2
11:40 26.2 °C 13.3 °C 1014.8 hPa Calm   5.0 km/h 45% 0.0 mm 700 W/m2
11:45 25.8 °C 13.3 °C 1014.4 hPa East 5.0 km/h 8.7 km/h 46% 0.0 mm 710 W/m2
11:50 25.6 °C 13.4 °C 1014.4 hPa East 5.0 km/h 8.7 km/h 47% 0.0 mm 720 W/m2
11:55 25.6 °C 13.8 °C 1014.4 hPa Calm   8.7 km/h 48% 0.0 mm 731 W/m2
12:00 26.0 °C 13.5 °C 1014.4 hPa Calm   7.2 km/h 46% 0.0 mm 750 W/m2
12:05 26.1 °C 13.9 °C 1014.4 hPa Calm   5.0 km/h 47% 0.0 mm 768 W/m2
12:10 26.2 °C 13.7 °C 1014.1 hPa Calm   5.0 km/h 46% 0.0 mm 791 W/m2
12:15 26.1 °C 13.6 °C 1014.1 hPa NNW 1.1 km/h 9.7 km/h 46% 0.0 mm 799 W/m2
12:20 26.4 °C 13.6 °C 1014.1 hPa Calm   9.7 km/h 45% 0.0 mm 804 W/m2
12:25 26.8 °C 13.9 °C 1013.8 hPa NE 7.2 km/h 9.7 km/h 45% 0.0 mm 814 W/m2
12:30 27.1 °C 14.2 °C 1013.8 hPa ENE 6.1 km/h 9.7 km/h 45% 0.0 mm 827 W/m2
12:35 27.1 °C 14.2 °C 1013.8 hPa ENE 6.1 km/h 11.1 km/h 45% 0.0 mm 835 W/m2
12:40 27.1 °C 13.4 °C 1013.4 hPa ENE 7.2 km/h 13.4 km/h 43% 0.0 mm 853 W/m2
12:45 27.1 °C 14.2 °C 1013.4 hPa East 7.2 km/h 13.4 km/h 45% 0.0 mm 865 W/m2
12:50 26.8 °C 14.9 °C 1013.8 hPa ESE 5.0 km/h 18.3 km/h 48% 0.0 mm 867 W/m2
12:55 25.6 °C 13.8 °C 1013.4 hPa SSE 7.2 km/h 19.5 km/h 48% 0.0 mm 884 W/m2
13:00 25.8 °C 14.3 °C 1013.4 hPa SE 3.5 km/h 19.5 km/h 49% 0.0 mm 892 W/m2
13:05 26.1 °C 13.9 °C 1013.4 hPa SE 11.1 km/h 17.2 km/h 47% 0.0 mm 910 W/m2
13:10 25.6 °C 13.8 °C 1013.4 hPa SSE 9.7 km/h 17.2 km/h 48% 0.0 mm 908 W/m2
13:15 25.7 °C 14.5 °C 1013.4 hPa South 6.1 km/h 17.2 km/h 50% 0.0 mm 911 W/m2
13:20 25.6 °C 14.4 °C 1013.4 hPa South 8.7 km/h 18.3 km/h 50% 0.0 mm 912 W/m2
13:25 25.8 °C 14.6 °C 1013.4 hPa South 7.2 km/h 18.3 km/h 50% 0.0 mm 916 W/m2
13:30 25.8 °C 14.6 °C 1013.4 hPa South 11.1 km/h 15.8 km/h 50% 0.0 mm 914 W/m2
13:35 25.6 °C 14.4 °C 1013.4 hPa South 6.1 km/h 17.2 km/h 50% 0.0 mm 913 W/m2
13:40 26.1 °C 14.9 °C 1013.4 hPa South 7.2 km/h 17.2 km/h 50% 0.0 mm 913 W/m2
13:45 26.5 °C 14.6 °C 1013.4 hPa South 5.0 km/h 17.2 km/h 48% 0.0 mm 914 W/m2
13:50 26.3 °C 15.4 °C 1013.4 hPa South 8.7 km/h 18.3 km/h 51% 0.0 mm 910 W/m2
13:55 25.7 °C 16.3 °C 1013.4 hPa South 6.1 km/h 21.9 km/h 56% 0.0 mm 897 W/m2
14:00 25.4 °C 15.4 °C 1013.4 hPa SSE 12.2 km/h 21.9 km/h 54% 0.0 mm 894 W/m2
14:05 25.2 °C 15.6 °C 1013.4 hPa SSE 8.7 km/h 17.2 km/h 55% 0.0 mm 885 W/m2
14:10 25.3 °C 15.9 °C 1013.8 hPa SSE 2.6 km/h 17.2 km/h 56% 0.0 mm 878 W/m2
14:15 25.9 °C 15.6 °C 1013.8 hPa SE 7.2 km/h 14.8 km/h 53% 0.0 mm 875 W/m2
14:20 25.8 °C 15.8 °C 1013.8 hPa SSE 5.0 km/h 14.8 km/h 54% 0.0 mm 873 W/m2
14:25 25.6 °C 15.3 °C 1013.8 hPa SE 5.0 km/h 18.3 km/h 53% 0.0 mm 855 W/m2
14:30 25.7 °C 15.1 °C 1013.8 hPa SE 12.2 km/h 18.3 km/h 52% 0.0 mm 583 W/m2
14:35 25.5 °C 14.7 °C 1013.8 hPa SSE 7.2 km/h 17.2 km/h 51% 0.0 mm 772 W/m2
14:40 25.7 °C 14.5 °C 1013.8 hPa SSE 2.6 km/h 17.2 km/h 50% 0.0 mm 815 W/m2
14:45 26.4 °C 15.2 °C 1013.8 hPa SE 6.1 km/h 17.2 km/h 50% 0.0 mm 807 W/m2
14:50 27.0 °C 14.7 °C 1013.4 hPa SE 7.2 km/h 15.8 km/h 47% 0.0 mm 518 W/m2
14:55 26.9 °C 14.7 °C 1013.8 hPa ESE 6.1 km/h 15.8 km/h 47% 0.0 mm 472 W/m2
15:00 27.0 °C 14.4 °C 1013.8 hPa SE 6.1 km/h 15.8 km/h 46% 0.0 mm 752 W/m2
15:05 27.2 °C 14.6 °C 1013.8 hPa SE 7.2 km/h 13.4 km/h 46% 0.0 mm 696 W/m2
15:10 27.4 °C 14.1 °C 1013.4 hPa SE 8.7 km/h 13.4 km/h 44% 0.0 mm 740 W/m2
15:15 27.1 °C 14.2 °C 1013.4 hPa SSE 7.2 km/h 17.2 km/h 45% 0.0 mm 726 W/m2
15:20 27.6 °C 14.3 °C 1013.4 hPa SSE 6.1 km/h 17.2 km/h 44% 0.0 mm 707 W/m2
15:25 28.2 °C 15.2 °C 1013.4 hPa SE 5.0 km/h 13.4 km/h 45% 0.0 mm 629 W/m2
15:30 28.3 °C 14.9 °C 1013.4 hPa SE 3.5 km/h 11.1 km/h 44% 0.0 mm 545 W/m2
15:35 28.5 °C 15.1 °C 1013.4 hPa SE 3.5 km/h 11.1 km/h 44% 0.0 mm 533 W/m2
15:38 28.6 °C 14.8 °C 1013.4 hPa SSE 5.0 km/h 11.1 km/h 43% 0.0 mm 682 W/m2
15:43 29.1 °C 15.6 °C 1013.4 hPa ESE 3.5 km/h 9.7 km/h 44% 0.0 mm 664 W/m2
15:48 29.3 °C 14.7 °C 1013.4 hPa ESE 5.0 km/h 11.1 km/h 41% 0.0 mm 534 W/m2
15:53 28.4 °C 14.3 °C 1013.4 hPa East 1.1 km/h 12.2 km/h 42% 0.0 mm 626 W/m2
15:58 29.0 °C 14.8 °C 1013.1 hPa ESE 2.6 km/h 12.2 km/h 42% 0.0 mm 274 W/m2
16:03 29.2 °C 15.4 °C 1013.1 hPa SE 2.6 km/h 9.7 km/h 43% 0.0 mm 199 W/m2
16:08 28.8 °C 15.7 °C 1013.1 hPa ESE 3.5 km/h 9.7 km/h 45% 0.0 mm 567 W/m2
16:13 28.8 °C 15.0 °C 1013.1 hPa ESE 5.0 km/h 9.7 km/h 43% 0.0 mm 358 W/m2
16:18 28.8 °C 15.7 °C 1013.1 hPa SE 3.5 km/h 9.7 km/h 45% 0.0 mm 519 W/m2
16:23 29.1 °C 14.6 °C 1012.8 hPa SSE 6.1 km/h 9.7 km/h 41% 0.0 mm 367 W/m2
16:28 29.7 °C 14.7 °C 1013.1 hPa Calm   9.7 km/h 40% 0.0 mm 464 W/m2
16:33 30.1 °C 14.7 °C 1013.1 hPa ESE 3.5 km/h 9.7 km/h 39% 0.0 mm 478 W/m2
16:38 29.9 °C 15.2 °C 1013.1 hPa SE 6.1 km/h 9.7 km/h 41% 0.0 mm 471 W/m2
16:43 29.8 °C 14.8 °C 1013.1 hPa SE 6.1 km/h 9.7 km/h 40% 0.0 mm 453 W/m2
16:48 30.0 °C 14.2 °C 1013.1 hPa SE 2.6 km/h 9.7 km/h 38% 0.0 mm 436 W/m2
16:53 30.2 °C 14.7 °C 1013.1 hPa ESE 1.1 km/h 9.7 km/h 39% 0.0 mm 422 W/m2
16:58 30.6 °C 14.3 °C 1013.1 hPa ESE 5.0 km/h 8.7 km/h 37% 0.0 mm 409 W/m2
17:03 30.3 °C 14.4 °C 1012.8 hPa SE 5.0 km/h 9.7 km/h 38% 0.0 mm 395 W/m2
17:08 30.5 °C 14.6 °C 1012.8 hPa Calm   9.7 km/h 38% 0.0 mm 380 W/m2
17:13 30.5 °C 14.2 °C 1012.8 hPa Calm   7.2 km/h 37% 0.0 mm 365 W/m2
17:18 30.4 °C 14.1 °C 1012.8 hPa Calm   7.2 km/h 37% 0.0 mm 82 W/m2
17:23 28.3 °C 14.6 °C 1013.1 hPa SE 3.5 km/h 7.2 km/h 43% 0.0 mm 87 W/m2
17:28 27.1 °C 13.1 °C 1012.8 hPa Calm   7.2 km/h 42% 0.0 mm 342 W/m2
17:33 28.6 °C 15.6 °C 1012.8 hPa Calm   6.1 km/h 45% 0.0 mm 318 W/m2
17:38 30.3 °C 13.6 °C 1013.1 hPa SE 1.1 km/h 8.7 km/h 36% 0.0 mm 303 W/m2
17:43 30.3 °C 14.0 °C 1012.8 hPa Calm   8.7 km/h 37% 0.0 mm 76 W/m2
17:48 29.2 °C 14.2 °C 1012.8 hPa Calm   5.0 km/h 40% 0.0 mm 86 W/m2
17:53 28.5 °C 14.4 °C 1012.8 hPa Calm   1.1 km/h 42% 0.0 mm 145 W/m2
17:58 28.8 °C 15.0 °C 1013.1 hPa SSE 6.1 km/h 7.2 km/h 43% 0.0 mm 87 W/m2
18:03 27.7 °C 14.0 °C 1012.8 hPa South 3.5 km/h 7.2 km/h 43% 0.0 mm 89 W/m2
18:08 27.0 °C 13.7 °C 1012.8 hPa Calm   6.1 km/h 44% 0.0 mm 102 W/m2
18:13 27.8 °C 14.4 °C 1012.8 hPa Calm   5.0 km/h 44% 0.0 mm 121 W/m2
18:18 28.5 °C 15.4 °C 1012.8 hPa Calm     45% 0.0 mm 90 W/m2
18:23 27.6 °C 13.6 °C 1012.8 hPa South 3.5 km/h 6.1 km/h 42% 0.0 mm 83 W/m2
18:28 27.2 °C 13.9 °C 1012.8 hPa Calm   6.1 km/h 44% 0.0 mm 68 W/m2
18:33 26.7 °C 13.8 °C 1012.8 hPa SSE 3.5 km/h 6.1 km/h 45% 0.0 mm 53 W/m2
18:38 26.2 °C 13.7 °C 1012.8 hPa SSE 2.6 km/h 6.1 km/h 46% 0.0 mm 52 W/m2
18:43 25.7 °C 15.1 °C 1012.8 hPa South 2.6 km/h 6.1 km/h 52% 0.0 mm 60 W/m2
18:48 25.5 °C 15.2 °C 1012.8 hPa SSE 1.1 km/h 6.1 km/h 53% 0.0 mm 64 W/m2
18:53 25.2 °C 15.3 °C 1012.8 hPa SE 2.6 km/h 5.0 km/h 54% 0.0 mm 63 W/m2
18:58 25.0 °C 15.3 °C 1012.8 hPa SSE 1.1 km/h 6.1 km/h 55% 0.0 mm 57 W/m2
19:03 24.6 °C 16.8 °C 1012.8 hPa Calm   8.7 km/h 62% 0.0 mm 43 W/m2
19:08 24.2 °C 16.7 °C 1012.8 hPa Calm   8.7 km/h 63% 0.0 mm 37 W/m2
19:13 23.8 °C 16.8 °C 1013.1 hPa Calm   7.2 km/h 65% 0.0 mm 36 W/m2
19:18 23.7 °C 17.0 °C 1013.1 hPa Calm   6.1 km/h 66% 0.0 mm 37 W/m2
19:23 23.6 °C 16.9 °C 1012.8 hPa Calm   1.1 km/h 66% 0.0 mm 35 W/m2
19:28 23.5 °C 16.6 °C 1013.1 hPa Calm     65% 0.0 mm 24 W/m2
19:33 23.5 °C 16.6 °C 1013.1 hPa Calm     65% 0.0 mm 17 W/m2
19:38 23.3 °C 16.1 °C 1013.1 hPa Calm     64% 0.0 mm 10 W/m2
19:43 23.2 °C 16.3 °C 1013.1 hPa Calm     65% 0.0 mm 5 W/m2
19:48 22.9 °C 16.0 °C 1013.1 hPa Calm     65% 0.0 mm 3 W/m2
19:53 22.6 °C 16.2 °C 1013.1 hPa Calm     67% 0.0 mm 1 W/m2
19:58 22.4 °C 16.4 °C 1013.1 hPa Calm     69% 0.0 mm 0 W/m2
20:03 22.2 °C 15.8 °C 1013.4 hPa Calm     67% 0.0 mm 0 W/m2
20:08 22.1 °C 15.4 °C 1013.4 hPa Calm     66% 0.0 mm 0 W/m2
20:13 22.2 °C 15.6 °C 1013.4 hPa Calm     66% 0.0 mm 0 W/m2
20:18 22.1 °C 15.9 °C 1013.4 hPa Calm     68% 0.0 mm 0 W/m2
20:23 22.0 °C 16.3 °C 1013.4 hPa Calm     70% 0.0 mm 0 W/m2
20:41 21.5 °C 16.1 °C 1013.8 hPa NW 1.1 km/h 7.2 km/h 71% 0.0 mm 0 W/m2
20:46 21.4 °C 16.2 °C 1013.8 hPa Calm   7.2 km/h 72% 0.0 mm 0 W/m2
20:51 21.2 °C 15.7 °C 1013.8 hPa Calm   7.2 km/h 71% 0.0 mm 0 W/m2
20:56 21.2 °C 15.5 °C 1013.8 hPa Calm   3.5 km/h 70% 0.0 mm 0 W/m2
21:01 21.0 °C 15.6 °C 1013.8 hPa Calm   3.5 km/h 71% 0.0 mm 0 W/m2
21:06 20.9 °C 15.4 °C 1013.8 hPa NW 1.1 km/h 5.0 km/h 71% 0.0 mm 0 W/m2
21:11 20.8 °C 15.4 °C 1014.1 hPa Calm   5.0 km/h 71% 0.0 mm 0 W/m2
21:16 20.7 °C 15.1 °C 1014.1 hPa Calm   2.6 km/h 70% 0.0 mm 0 W/m2
21:21 20.6 °C 14.9 °C 1014.1 hPa Calm   2.6 km/h 70% 0.0 mm 0 W/m2
21:26 20.6 °C 14.9 °C 1014.4 hPa Calm   2.6 km/h 70% 0.0 mm 0 W/m2
21:31 20.6 °C 14.7 °C 1014.4 hPa Calm   2.6 km/h 69% 0.0 mm 0 W/m2
21:36 20.6 °C 14.9 °C 1014.4 hPa Calm   2.6 km/h 70% 0.0 mm 0 W/m2
21:41 20.5 °C 14.8 °C 1014.1 hPa Calm   2.6 km/h 70% 0.0 mm 0 W/m2
21:46 20.5 °C 15.1 °C 1014.4 hPa Calm   2.6 km/h 71% 0.0 mm 0 W/m2
21:51 20.3 °C 14.9 °C 1014.4 hPa Calm   3.5 km/h 71% 0.0 mm 0 W/m2
21:56 20.2 °C 15.0 °C 1014.4 hPa Calm   3.5 km/h 72% 0.0 mm 0 W/m2
22:01 20.0 °C 15.0 °C 1014.4 hPa NW 2.6 km/h 6.1 km/h 73% 0.0 mm 0 W/m2
22:06 19.9 °C 15.3 °C 1014.8 hPa NW 2.6 km/h 6.1 km/h 75% 0.0 mm 0 W/m2
22:11 19.9 °C 15.3 °C 1014.8 hPa Calm   6.1 km/h 75% 0.0 mm 0 W/m2
22:16 19.9 °C 15.2 °C 1014.4 hPa Calm   6.1 km/h 74% 0.0 mm 0 W/m2
22:21 19.9 °C 15.2 °C 1014.8 hPa SW 3.5 km/h 6.1 km/h 74% 0.0 mm 0 W/m2
22:26 20.1 °C 14.4 °C 1014.8 hPa Calm   6.1 km/h 70% 0.0 mm 0 W/m2
22:31 20.2 °C 14.3 °C 1014.8 hPa Calm   6.1 km/h 69% 0.0 mm 0 W/m2
22:36 20.1 °C 14.2 °C 1014.4 hPa Calm     69% 0.0 mm 0 W/m2
22:41 20.0 °C 14.2 °C 1014.8 hPa Calm     69% 0.0 mm 0 W/m2
22:46 19.8 °C 14.4 °C 1014.8 hPa Calm     71% 0.0 mm 0 W/m2
22:51 19.6 °C 14.4 °C 1014.8 hPa Calm     72% 0.0 mm 0 W/m2
22:56 19.4 °C 14.4 °C 1014.4 hPa Calm     73% 0.0 mm 0 W/m2
23:01 19.4 °C 14.9 °C 1014.8 hPa Calm     75% 0.0 mm 0 W/m2
23:06 19.1 °C 14.8 °C 1014.8 hPa Calm     76% 0.0 mm 0 W/m2
23:11 18.7 °C 14.4 °C 1014.8 hPa Calm     76% 0.0 mm 0 W/m2
23:16 18.5 °C 14.4 °C 1014.8 hPa Calm     77% 0.0 mm 0 W/m2
23:21 18.4 °C 14.3 °C 1014.8 hPa Calm     77% 0.0 mm 0 W/m2
23:26 18.4 °C 14.5 °C 1014.8 hPa Calm     78% 0.0 mm 0 W/m2
23:31 18.2 °C 14.5 °C 1014.8 hPa NNW 1.1 km/h 3.5 km/h 79% 0.0 mm 0 W/m2
23:36 18.0 °C 14.7 °C 1014.8 hPa NNW 3.5 km/h 7.2 km/h 81% 0.0 mm 0 W/m2
23:41 17.9 °C 14.8 °C 1014.8 hPa Calm   7.2 km/h 82% 0.0 mm 0 W/m2
23:46 17.7 °C 14.8 °C 1014.8 hPa Calm   7.2 km/h 83% 0.0 mm 0 W/m2
23:51 17.6 °C 14.7 °C 1014.8 hPa Calm   5.0 km/h 83% 0.0 mm 0 W/m2
23:56 17.5 °C 14.8 °C 1014.8 hPa Calm   5.0 km/h 84% 0.0 mm 0 W/m2
Northern Hawkes Bay. New Zealand Historic Data
Compliments of Weather Underground - 2.25 mb